Date String (YYYY-MM-DD hh:mm:ss) UTC,Instrument flags,absolute air pressure of the measurement (hPa),sample flow rate (lpm),inlet stack bypass flow (lpm),air temperature of the measurement (°C),ambient temperature measured by the external sensor (°C),aerosol sample conditioner tube jacket temperature (°C),OPC LED temperature (°C),internal box temperature (°C),relative humidity of the measurement (%),span deviation,mass concentration of particles derived from Lorenz-Mie calculation of OPC scattering (μg/m³),mass concentration of particles derived from Lorenz-Mie calculation of OPC scattering (μg/m³),mass concentration of particles derived from Lorenz-Mie calculation of OPC scattering (μg/m³)
DateTimeUTC,F1_M11,P_M11,Q1_M11,Q2_M11,T1_M11,T2_M11,T3_M11,T4_M11,T5_M11,U1_M11,ZSPAN_M11,X2_M11,X0_M11,X1_M11
2024-04-20 15:00:00,SystemResetWarning,0835.3,5.01,000.00,019.3,018.8,000.0,027.7,021.1,023.4,0000.0,0006.77,0008.13,0006.63
2024-04-20 15:01:00,SystemResetWarning,0835.3,4.99,000.00,019.3,018.8,000.0,027.7,021.1,023.4,0000.0,0006.77,0008.14,0006.63
2024-04-20 15:02:00,SystemResetWarning,0835.3,4.98,000.00,019.3,018.8,000.0,027.7,021.1,023.4,0000.0,0006.75,0008.10,0006.62
2024-04-20 15:03:00,SystemResetWarning,0835.4,5.00,000.00,019.3,018.8,000.0,027.7,021.1,023.4,0000.0,0006.73,0008.03,0006.62
2024-04-20 15:04:00,SystemResetWarning,0835.3,5.01,000.00,019.3,018.8,000.0,027.7,021.1,023.3,0000.0,0006.71,0008.00,0006.60
2024-04-20 15:05:00,SystemResetWarning,0835.4,5.00,000.00,019.3,018.9,000.0,027.7,021.1,023.2,0000.0,0006.69,0008.02,0006.56
2024-04-20 15:06:00,SystemResetWarning,0835.5,5.00,000.00,019.3,018.9,000.0,027.7,021.1,023.1,0000.0,0006.65,0008.00,0006.51
2024-04-20 15:07:00,SystemResetWarning,0835.5,5.00,000.00,019.3,018.9,000.0,027.7,021.1,023.1,0000.0,0006.62,0007.99,0006.48
2024-04-20 15:08:00,SystemResetWarning,0835.4,5.01,000.00,019.3,018.9,000.0,027.7,021.1,023.1,0000.0,0006.57,0007.92,0006.44
2024-04-20 15:09:00,SystemResetWarning,0835.3,4.99,000.00,019.3,018.9,000.0,027.7,021.1,023.1,0000.0,0006.53,0007.87,0006.40
2024-04-20 15:10:00,SystemResetWarning,0835.3,5.00,000.00,019.3,018.9,000.0,027.7,021.1,023.2,0000.0,0006.49,0007.84,0006.37
2024-04-20 15:11:00,SystemResetWarning,0835.4,5.00,000.00,019.4,018.9,000.0,027.8,021.1,023.2,0000.0,0006.44,0007.79,0006.32
2024-04-20 15:12:00,SystemResetWarning,0835.3,4.99,000.00,019.4,018.9,000.0,027.8,021.1,023.3,0000.0,0006.40,0007.76,0006.29
2024-04-20 15:13:00,SystemResetWarning,0835.3,5.00,000.00,019.4,018.9,000.0,027.8,021.1,023.4,0000.0,0006.37,0007.76,0006.27
2024-04-20 15:14:00,SystemResetWarning,0835.3,5.00,000.00,019.4,018.9,000.0,027.8,021.1,023.4,0000.0,0006.37,0007.79,0006.26
2024-04-20 15:15:00,SystemResetWarning,0835.5,5.00,000.00,019.4,018.9,000.0,027.8,021.1,023.2,0000.0,0006.40,0007.85,0006.28
2024-04-20 15:16:00,SystemResetWarning,0835.3,5.00,000.00,019.4,018.9,000.0,027.8,021.1,023.1,0000.0,0006.39,0007.82,0006.29
2024-04-20 15:17:00,SystemResetWarning,0835.4,5.00,000.00,019.4,018.9,000.0,027.8,021.1,023.1,0000.0,0006.40,0007.80,0006.32
2024-04-20 15:18:00,SystemResetWarning,0835.3,4.99,000.00,019.4,018.9,000.0,027.8,021.2,023.1,0000.0,0006.42,0007.80,0006.34
2024-04-20 15:19:00,SystemResetWarning,0835.2,5.00,000.00,019.4,018.9,000.0,027.8,021.1,023.1,0000.0,0006.46,0007.84,0006.38
2024-04-20 15:20:00,SystemResetWarning,0835.4,5.00,000.00,019.4,018.9,000.0,027.8,021.2,023.0,0000.0,0006.49,0007.88,0006.41
2024-04-20 15:21:00,SystemResetWarning,0835.3,5.00,000.00,019.4,018.9,000.0,027.8,021.2,023.0,0000.0,0006.52,0007.91,0006.43
2024-04-20 15:22:00,SystemResetWarning,0835.3,5.00,000.00,019.4,018.9,000.0,027.8,021.2,022.9,0000.0,0006.52,0007.93,0006.44
2024-04-20 15:23:00,SystemResetWarning,0835.4,5.00,000.00,019.4,019.0,000.0,027.8,021.2,022.7,0000.0,0006.50,0007.90,0006.43
2024-04-20 15:24:00,SystemResetWarning,0835.4,5.00,000.00,019.4,019.0,000.0,027.8,021.2,022.7,0000.0,0006.46,0007.85,0006.38
2024-04-20 15:25:00,SystemResetWarning,0835.2,5.00,000.00,019.4,019.0,000.0,027.8,021.2,022.6,0000.0,0006.40,0007.77,0006.32
2024-04-20 15:26:00,SystemResetWarning,0835.4,5.00,000.00,019.4,019.0,000.0,027.8,021.2,022.6,0000.0,0006.34,0007.70,0006.27
2024-04-20 15:27:00,SystemResetWarning,0835.3,5.00,000.00,019.5,019.0,000.0,027.8,021.2,022.5,0000.0,0006.27,0007.62,0006.21
2024-04-20 15:28:00,SystemResetWarning,0835.4,5.01,000.00,019.5,019.0,000.0,027.9,021.2,022.6,0000.0,0006.18,0007.55,0006.11
2024-04-20 15:29:00,SystemResetWarning,0835.3,5.00,000.00,019.5,019.0,000.0,027.9,021.2,022.6,0000.0,0006.10,0007.47,0006.04
2024-04-20 15:30:00,SystemResetWarning,0835.3,4.99,000.00,019.5,019.0,000.0,027.9,021.2,022.4,0000.0,0005.99,0007.35,0005.94
2024-04-20 15:31:00,SystemResetWarning,0835.4,4.99,000.00,019.5,019.0,000.0,027.9,021.2,022.4,0000.0,0005.90,0007.26,0005.84
2024-04-20 15:32:00,SystemResetWarning,0835.3,5.00,000.00,019.5,019.0,000.0,027.9,021.3,022.4,0000.0,0005.81,0007.15,0005.76
2024-04-20 15:33:00,SystemResetWarning,0835.3,5.00,000.00,019.5,019.0,000.0,027.9,021.3,022.2,0000.0,0005.75,0007.05,0005.70
2024-04-20 15:34:00,SystemResetWarning,0835.2,5.00,000.00,019.5,019.0,000.0,027.9,021.3,022.1,0000.0,0005.66,0006.88,0005.62
2024-04-20 15:35:00,SystemResetWarning,0835.3,5.00,000.00,019.5,019.1,000.0,027.9,021.3,022.0,0000.0,0005.58,0006.76,0005.54
2024-04-20 15:36:00,SystemResetWarning,0835.2,5.00,000.00,019.5,019.1,000.0,027.9,021.3,022.1,0000.0,0005.51,0006.66,0005.46
2024-04-20 15:37:00,SystemResetWarning,0835.2,5.00,000.00,019.5,019.1,000.0,027.9,021.3,022.2,0000.0,0005.44,0006.54,0005.39
2024-04-20 15:38:00,SystemResetWarning,0835.2,5.00,000.00,019.5,019.1,000.0,027.9,021.3,022.1,0000.0,0005.39,0006.63,0005.33
2024-04-20 15:39:00,SystemResetWarning,0835.2,5.00,000.00,019.5,019.1,000.0,027.9,021.3,022.4,0000.0,0005.37,0006.72,0005.30
2024-04-20 15:40:00,SystemResetWarning,0835.2,5.01,000.00,019.5,019.1,000.0,027.9,021.3,022.6,0000.0,0005.38,0006.78,0005.31
2024-04-20 15:41:00,SystemResetWarning,0835.2,5.00,000.00,019.5,019.1,000.0,027.9,021.3,022.6,0000.0,0005.42,0006.89,0005.33
2024-04-20 15:42:00,SystemResetWarning,0835.2,5.01,000.00,019.6,019.1,000.0,027.9,021.3,022.6,0000.0,0005.47,0006.99,0005.37
2024-04-20 15:43:00,SystemResetWarning,0835.2,5.00,000.00,019.6,019.1,000.0,028.0,021.3,022.6,0000.0,0005.49,0007.01,0005.39
2024-04-20 15:44:00,SystemResetWarning,0835.2,5.00,000.00,019.6,019.1,000.0,028.0,021.3,022.6,0000.0,0005.51,0007.05,0005.40
2024-04-20 15:45:00,SystemResetWarning,0835.2,5.00,000.00,019.6,019.1,000.0,028.0,021.3,022.7,0000.0,0005.55,0007.13,0005.44
2024-04-20 15:46:00,SystemResetWarning,0835.2,5.00,000.00,019.6,019.1,000.0,028.0,021.4,022.6,0000.0,0005.59,0007.19,0005.48
2024-04-20 15:47:00,SystemResetWarning,0835.2,5.00,000.00,019.6,019.1,000.0,028.0,021.4,022.7,0000.0,0005.63,0007.26,0005.51
2024-04-20 15:48:00,SystemResetWarning,0835.2,5.00,000.00,019.6,019.1,000.0,028.0,021.4,022.5,0000.0,0005.66,0007.35,0005.54
2024-04-20 15:49:00,SystemResetWarning,0835.2,5.00,000.00,019.6,019.1,000.0,028.0,021.4,022.5,0000.0,0005.69,0007.27,0005.59
2024-04-20 15:50:00,SystemResetWarning,0835.3,5.00,000.00,019.6,019.2,000.0,028.0,021.4,022.7,0000.0,0005.72,0007.16,0005.62
2024-04-20 15:51:00,SystemResetWarning,0835.3,5.00,000.00,019.6,019.2,000.0,028.0,021.4,022.8,0000.0,0005.72,0007.09,0005.63
2024-04-20 15:52:00,SystemResetWarning,0835.3,4.99,000.00,019.6,019.2,000.0,028.0,021.4,022.9,0000.0,0005.70,0007.02,0005.63
2024-04-20 15:53:00,SystemResetWarning,0835.2,5.00,000.00,019.6,019.2,000.0,028.0,021.4,022.8,0000.0,0005.69,0006.98,0005.63
2024-04-20 15:54:00,SystemResetWarning,0835.3,5.00,000.00,019.6,019.2,000.0,028.0,021.4,022.7,0000.0,0005.69,0006.99,0005.63
2024-04-20 15:55:00,SystemResetWarning,0835.3,5.00,000.00,019.6,019.2,000.0,028.0,021.4,022.6,0000.0,0005.69,0006.99,0005.64
2024-04-20 15:56:00,SystemResetWarning,0835.3,5.00,000.00,019.6,019.2,000.0,028.0,021.4,022.4,0000.0,0005.70,0007.00,0005.64
2024-04-20 15:57:00,SystemResetWarning,0835.3,5.00,000.00,019.7,019.2,000.0,028.0,021.4,022.5,0000.0,0005.72,0007.07,0005.65
2024-04-20 15:58:00,SystemResetWarning,0835.3,5.01,000.00,019.7,019.2,000.0,028.1,021.4,022.6,0000.0,0005.76,0007.21,0005.67
2024-04-20 15:59:00,SystemResetWarning,0835.3,5.01,000.00,019.7,019.2,000.0,028.1,021.4,022.6,0000.0,0005.76,0007.14,0005.68
